When you browse on this site, cookies collect data to enhance your experience and personalize the content and advertising you see.
Visit our Privacy Policy to learn more. By continuing to use the site, you agree to this use of cookies and data.
  • In Austria
  • List of Countries
  • For 7 days
  • Water Temperature
  • Satellite Maps
  • Weather Map
  • News
  • Weather Widgets
  • user-avatar
    Login

    Hourly Weather Las Tablas

    Today, 14 December, Friday

    Time Temperature Precipitation Wind Pressure Humidity
    00:00 +26°C° 0 mm 4 mps 753 mmHg 82%
    01:00 +26°C° 0 mm 4 mps 752 mmHg 83%
    02:00 +26°C° 0 mm 3 mps 752 mmHg 83%
    03:00 +26°C° 0 mm 3 mps 752 mmHg 84%
    04:00 +26°C° 0 mm 3 mps 752 mmHg 84%
    05:00 +26°C° 0 mm 3 mps 752 mmHg 84%
    06:00 +26°C° 0 mm 3 mps 753 mmHg 84%
    07:00 +26°C° 0 mm 3 mps 753 mmHg 84%
    08:00 +28°C° 0 mm 3 mps 753 mmHg 80%
    09:00 +29°C° 0 mm 4 mps 754 mmHg 76%
    10:00 +30°C° 0 mm 4 mps 754 mmHg 72%
    11:00 +32°C° 0 mm 4 mps 753 mmHg 70%
    12:00 +33°C° 0 mm 4 mps 753 mmHg 68%
    13:00 +33°C° 0 mm 4 mps 753 mmHg 66%
    14:00 +33°C° 0 mm 3 mps 752 mmHg 67%
    15:00 +33°C° 0 mm 3 mps 752 mmHg 67%
    16:00 +33°C° 0 mm 3 mps 751 mmHg 68%
    17:00 +31°C° 0.1 mm 2 mps 751 mmHg 73%
    18:00 +29°C° 0.1 mm 2 mps 751 mmHg 79%
    19:00 +28°C° 0.1 mm 1 mps 752 mmHg 84%
    20:00 +28°C° 0.1 mm 1 mps 752 mmHg 85%
    21:00 +28°C° 0.1 mm 1 mps 753 mmHg 86%
    22:00 +27°C° 0.1 mm 1 mps 753 mmHg 88%
    23:00 +27°C° 0.1 mm 2 mps 753 mmHg 88%

    Tomorrow, 15 December, Saturday

    Time Temperature Precipitation Wind Pressure Humidity
    00:00 +27°C° 0.1 mm 2 mps 753 mmHg 88%
    01:00 +27°C° 0.1 mm 2 mps 753 mmHg 89%
    02:00 +27°C° 0 mm 2 mps 752 mmHg 89%
    03:00 +27°C° 0 mm 3 mps 752 mmHg 89%
    04:00 +26°C° 0 mm 3 mps 752 mmHg 89%
    05:00 +26°C° 0 mm 3 mps 752 mmHg 89%
    06:00 +26°C° 0 mm 3 mps 753 mmHg 88%
    07:00 +27°C° 0 mm 2 mps 753 mmHg 88%
    08:00 +28°C° 0 mm 3 mps 753 mmHg 83%
    09:00 +29°C° 0 mm 3 mps 754 mmHg 77%
    10:00 +32°C° 0 mm 4 mps 754 mmHg 72%
    11:00 +32°C° 0.2 mm 4 mps 754 mmHg 70%
    12:00 +33°C° 0.2 mm 4 mps 753 mmHg 68%
    13:00 +33°C° 0.2 mm 4 mps 752 mmHg 66%
    14:00 +33°C° 0 mm 4 mps 752 mmHg 66%
    15:00 +33°C° 0 mm 4 mps 751 mmHg 67%
    16:00 +33°C° 0 mm 4 mps 751 mmHg 68%
    17:00 +32°C° 0 mm 4 mps 751 mmHg 74%
    18:00 +29°C° 0 mm 4 mps 751 mmHg 79%
    19:00 +28°C° 0 mm 4 mps 752 mmHg 84%
    20:00 +28°C° 0 mm 4 mps 752 mmHg 84%
    21:00 +28°C° 0 mm 4 mps 753 mmHg 83%
    22:00 +27°C° 0 mm 5 mps 753 mmHg 83%
    23:00 +27°C° 0 mm 5 mps 753 mmHg 83%

    Day after tomorrow, 16 December, Sunday

    Time Temperature Precipitation Wind Pressure Humidity
    00:00 +27°C° 0 mm 5 mps 753 mmHg 84%
    01:00 +27°C° 0 mm 5 mps 753 mmHg 84%
    02:00 +26°C° 0 mm 5 mps 753 mmHg 85%
    03:00 +26°C° 0 mm 5 mps 752 mmHg 85%
    04:00 +26°C° 0 mm 5 mps 752 mmHg 86%
    05:00 +26°C° 0 mm 5 mps 752 mmHg 86%
    06:00 +26°C° 0 mm 5 mps 753 mmHg 85%
    07:00 +26°C° 0 mm 5 mps 753 mmHg 85%
    08:00 +27°C° 0 mm 6 mps 753 mmHg 80%
    09:00 +29°C° 0 mm 6 mps 754 mmHg 76%
    10:00 +30°C° 0 mm 7 mps 754 mmHg 71%
    11:00 +32°C° 0 mm 7 mps 754 mmHg 70%
    12:00 +32°C° 0 mm 7 mps 753 mmHg 68%
    13:00 +33°C° 0 mm 6 mps 752 mmHg 67%
    14:00 +33°C° 0 mm 6 mps 752 mmHg 67%
    15:00 +32°C° 0 mm 6 mps 751 mmHg 67%
    16:00 +32°C° 0 mm 6 mps 750 mmHg 68%
    17:00 +30°C° 0 mm 6 mps 751 mmHg 72%
    18:00 +29°C° 0 mm 6 mps 751 mmHg 75%
    19:00 +28°C° 0 mm 6 mps 751 mmHg 79%
    20:00 +28°C° 0 mm 6 mps 752 mmHg 80%
    21:00 +27°C° 0 mm 6 mps 753 mmHg 82%
    22:00 +27°C° 0 mm 6 mps 753 mmHg 83%
    23:00 +27°C° 0 mm 5 mps 753 mmHg 84%

    17 December, Monday

    Time Temperature Precipitation Wind Pressure Humidity
    00:00 +27°C° 0 mm 5 mps 753 mmHg 84%
    01:00 +26°C° 0 mm 5 mps 753 mmHg 85%
    02:00 +26°C° 0 mm 5 mps 752 mmHg 85%
    03:00 +26°C° 0 mm 5 mps 752 mmHg 85%
    04:00 +26°C° 0 mm 5 mps 752 mmHg 86%
    05:00 +26°C° 0 mm 5 mps 752 mmHg 86%
    06:00 +26°C° 0 mm 5 mps 752 mmHg 85%
    07:00 +26°C° 0 mm 5 mps 753 mmHg 85%
    08:00 +27°C° 0 mm 6 mps 753 mmHg 81%
    09:00 +29°C° 0 mm 6 mps 754 mmHg 76%
    10:00 +30°C° 0 mm 7 mps 754 mmHg 72%
    11:00 +30°C° 0 mm 7 mps 754 mmHg 70%
    12:00 +32°C° 0 mm 6 mps 753 mmHg 68%
    13:00 +32°C° 0 mm 6 mps 752 mmHg 66%
    14:00 +32°C° 0 mm 6 mps 752 mmHg 66%
    15:00 +32°C° 0 mm 6 mps 751 mmHg 67%
    16:00 +32°C° 0 mm 6 mps 750 mmHg 68%
    17:00 +30°C° 0 mm 6 mps 751 mmHg 71%
    18:00 +29°C° 0 mm 6 mps 751 mmHg 74%
    19:00 +28°C° 0 mm 6 mps 752 mmHg 76%
    20:00 +27°C° 0 mm 5 mps 752 mmHg 77%
    21:00 +27°C° 0 mm 5 mps 753 mmHg 78%
    22:00 +27°C° 0 mm 5 mps 753 mmHg 79%
    23:00 +26°C° 0 mm 5 mps 753 mmHg 80%

    18 December, Tuesday

    Time Temperature Precipitation Wind Pressure Humidity
    00:00 +26°C° 0 mm 4 mps 753 mmHg 81%
    01:00 +26°C° 0 mm 4 mps 752 mmHg 81%
    02:00 +26°C° 0 mm 4 mps 752 mmHg 81%
    03:00 +26°C° 0 mm 4 mps 752 mmHg 81%
    04:00 +25°C° 0 mm 4 mps 751 mmHg 81%
    05:00 +26°C° 0 mm 4 mps 752 mmHg 82%
    06:00 +26°C° 0 mm 4 mps 752 mmHg 82%
    07:00 +26°C° 0 mm 4 mps 753 mmHg 82%
    08:00 +27°C° 0 mm 4 mps 753 mmHg 78%
    09:00 +29°C° 0 mm 5 mps 753 mmHg 74%
    10:00 +30°C° 0 mm 5 mps 754 mmHg 70%
    11:00 +32°C° 0 mm 5 mps 753 mmHg 68%
    12:00 +32°C° 0 mm 5 mps 752 mmHg 66%
    13:00 +33°C° 0 mm 5 mps 752 mmHg 64%
    14:00 +33°C° 0.2 mm 5 mps 751 mmHg 65%
    15:00 +33°C° 0.2 mm 4 mps 751 mmHg 66%
    16:00 +32°C° 0.2 mm 4 mps 750 mmHg 67%
    17:00 +30°C° 0.1 mm 4 mps 751 mmHg 71%
    18:00 +29°C° 0.1 mm 4 mps 751 mmHg 75%
    19:00 +28°C° 0.1 mm 4 mps 751 mmHg 80%
    20:00 +28°C° 0 mm 4 mps 752 mmHg 80%
    21:00 +27°C° 0 mm 4 mps 752 mmHg 80%
    22:00 +27°C° 0 mm 4 mps 753 mmHg 80%
    23:00 +27°C° 0 mm 4 mps 753 mmHg 81%

    19 December, Wednesday

    Time Temperature Precipitation Wind Pressure Humidity
    00:00 +27°C° 0 mm 3 mps 752 mmHg 82%
    01:00 +26°C° 0 mm 3 mps 752 mmHg 83%
    02:00 +26°C° 0 mm 3 mps 752 mmHg 83%
    03:00 +26°C° 0 mm 3 mps 751 mmHg 84%
    04:00 +26°C° 0 mm 3 mps 751 mmHg 84%
    05:00 +26°C° 0 mm 3 mps 752 mmHg 84%
    06:00 +26°C° 0 mm 3 mps 752 mmHg 85%
    07:00 +26°C° 0 mm 3 mps 753 mmHg 85%
    08:00 +27°C° 0 mm 3 mps 753 mmHg 80%
    09:00 +29°C° 0 mm 4 mps 753 mmHg 75%
    10:00 +30°C° 0 mm 4 mps 754 mmHg 70%
    11:00 +32°C° 0.5 mm 4 mps 753 mmHg 68%
    12:00 +32°C° 0.5 mm 4 mps 752 mmHg 67%
    13:00 +33°C° 0.5 mm 4 mps 752 mmHg 66%
    14:00 +32°C° 0.4 mm 4 mps 751 mmHg 67%
    15:00 +32°C° 0.4 mm 4 mps 750 mmHg 69%
    16:00 +32°C° 0.4 mm 4 mps 750 mmHg 71%
    17:00 +30°C° 0.5 mm 4 mps 750 mmHg 75%
    18:00 +29°C° 0.5 mm 4 mps 751 mmHg 79%
    19:00 +28°C° 0.5 mm 4 mps 751 mmHg 84%
    20:00 +28°C° 0.1 mm 4 mps 752 mmHg 84%
    21:00 +27°C° 0.1 mm 4 mps 752 mmHg 84%
    22:00 +27°C° 0.1 mm 4 mps 752 mmHg 85%
    23:00 +27°C° 0.1 mm 3 mps 752 mmHg 85%
    Show more